East Hartford, CT

11:21 PM EST on February 27, 2017 (GMT -0500)
Hartford-brainard

Weather History for KHFD - April, 2014

Change the Weather History Date:

Monday, April 21, 2014

  Actual Average Record
Temperature  
Mean Temperature 49 °F -  
Max Temperature 66 °F 62 °F 87 °F (1923)
Min Temperature 32 °F 40 °F 28 °F (1962)
Degree Days  
Heating Degree Days 16    
Moisture  
Dew Point 29 °F    
Average Humidity 53    
Maximum Humidity 89    
Minimum Humidity 12    
Precipitation  
Precipitation 0.00 in - - ()
Sea Level Pressure  
Sea Level Pressure 30.09 in    
Wind  
Wind Speed 4 mph (SSE)    
Max Wind Speed 13 mph    
Max Gust Speed -    
Visibility 10 miles    
Events      
Averages and records for this station are not official NWS values.
T = Trace of Precipitation, MM = Missing Value Source: NWS Daily Summary

Daily Weather History Graph

Daily Weather History Graph

Search for Another Location

Airport or City:

Trip Planner

Search our weather history database for the weather conditions in past years. The results will help you decide how hot, cold, wet, or windy it might be!

Date:

Astronomy

Apr. 21, 2014 Rise Set
Actual Time 6:01 AM EDT 7:37 PM EDT
Civil Twilight 5:32 AM EDT 8:07 PM EDT
Nautical Twilight 4:56 AM EDT 8:43 PM EDT
Astronomical Twilight 4:18 AM EDT 9:21 PM EDT
Moon 1:06 AM EDT (4/21) 11:23 AM EDT (4/21)
Length of Visible Light 14h 35m
Length of Day
13h 36m
Waning Gibbous, 58% of the Moon is Illuminated
Apr 21
Waning Gibbous
Apr 22
Last Quarter
Apr 29
New
May 6
First Quarter
May 14
Full

Hourly Weather History & Observations

Time (EDT) Temp. Windchill Dew Point Humidity Pressure Visibility Wind Dir Wind Speed Gust Speed Precip Events Conditions
12:53 AM 37.9 °F - 30.9 °F 76% 30.32 in 10.0 mi Calm Calm - N/A   Clear
1:53 AM 37.0 °F - 28.9 °F 73% 30.30 in 10.0 mi Calm Calm - N/A   Clear
2:53 AM 35.1 °F 32.2 °F 30.0 °F 82% 30.27 in 10.0 mi SE 3.5 mph - N/A   Clear
3:53 AM 33.1 °F - 28.0 °F 82% 30.27 in 10.0 mi Calm Calm - N/A   Clear
4:53 AM 35.1 °F - 30.0 °F 82% 30.25 in 10.0 mi Calm Calm - N/A   Clear
5:53 AM 32.0 °F - 28.9 °F 88% 30.24 in 10.0 mi Calm Calm - N/A   Clear
6:53 AM 35.1 °F 32.2 °F 32.0 °F 89% 30.25 in 10.0 mi SSE 3.5 mph - N/A   Clear
7:53 AM 39.0 °F 36.8 °F 32.0 °F 76% 30.24 in 10.0 mi SSE 3.5 mph - N/A   Clear
8:53 AM 45.0 °F 43.5 °F 30.9 °F 58% 30.22 in 10.0 mi SE 3.5 mph - N/A   Clear
9:53 AM 48.9 °F - 30.0 °F 48% 30.19 in 10.0 mi Variable 4.6 mph - N/A   Clear
10:53 AM 54.0 °F - 28.0 °F 37% 30.17 in 10.0 mi SE 6.9 mph - N/A   Clear
11:53 AM 55.9 °F - 26.1 °F 32% 30.12 in 10.0 mi Variable 4.6 mph - N/A   Clear
12:53 PM 60.1 °F - 21.9 °F 23% 30.08 in 10.0 mi SE 5.8 mph - N/A   Clear
1:53 PM 64.0 °F - 19.0 °F 18% 30.04 in 10.0 mi SSE 5.8 mph - N/A   Clear
2:53 PM 66.9 °F - 17.1 °F 15% 30.00 in 10.0 mi South 9.2 mph - N/A   Clear
3:53 PM 66.9 °F - 21.0 °F 17% 29.97 in 10.0 mi South 9.2 mph - N/A   Clear
4:53 PM 64.9 °F - 10.9 °F 12% 29.94 in 10.0 mi South 12.7 mph - N/A   Clear
5:53 PM 64.0 °F - 27.0 °F 25% 29.93 in 10.0 mi South 11.5 mph - N/A   Clear
6:53 PM 61.0 °F - 33.1 °F 35% 29.92 in 10.0 mi South 12.7 mph - N/A   Clear
7:53 PM 57.0 °F - 37.0 °F 47% 29.91 in 10.0 mi South 10.4 mph - N/A   Clear
8:53 PM 55.0 °F - 37.0 °F 51% 29.91 in 10.0 mi South 9.2 mph - N/A   Clear
9:53 PM 53.1 °F - 39.0 °F 59% 29.91 in 10.0 mi South 6.9 mph - N/A   Clear
10:53 PM 50.0 °F - 39.9 °F 68% 29.89 in 10.0 mi South 5.8 mph - N/A   Clear
11:53 PM 48.9 °F - 39.9 °F 71% 29.88 in 10.0 mi SSE 6.9 mph - N/A   Clear